Boynton Beach, FL (33437)

3:09 AM EST on February 28, 2015 (GMT -0500)
Valencia Pointe | Change Station
CLOSE
Current Station
Personal Weather Station
Location: Boynton Beach, FL
Elevation: 33 ft
Nearby Weather Stations

Elev 33 ft 26.51 °N, 80.16 °W | Updated 2 seconds ago

Mostly Cloudy
Mostly Cloudy
71.0 °F
Feels Like 71.0 °F
N
5.0
Wind Variable Wind from ENE

Today
High -- | Low -- °F
--% Chance of Precip.
Yesterday
High -- | Low -- °F
Precip. -- in
6:45 AM 6:21 PM
Waxing Gibbous, 75% visible
Pressure 30.15 in
Visibility 10.0 miles
Clouds Scattered Clouds 1400 ft
Mostly Cloudy 2600 ft
Mostly Cloudy 3200 ft
Dew Point 69 °F
Humidity 93%
Rainfall 0.00 in
Snow Depth Not available.
UV 0 out of 12
Pollen 9.30 out of 12
Air Quality Not available.
Flu Activity Not available.
METAR KPBI 280753Z 09011KT 10SM SCT014 BKN026 BKN032 22/20 A3015 RMK AO2 SLP210 T02220200

More Conditions Fewer Conditions

Pressure 30.15 in
Visibility 10.0 miles
Clouds Scattered Clouds 1400 ft
Mostly Cloudy 2600 ft
Mostly Cloudy 3200 ft
Dew Point 69 °F
Humidity 93%
Rainfall 0.00 in
Snow Depth Not available.
UV 0 out of 12
Pollen 9.30 out of 12
Air Quality Not available.
Flu Activity Not available.
METAR KPBI 280753Z 09011KT 10SM SCT014 BKN026 BKN032 22/20 A3015 RMK AO2 SLP210 T02220200

More Conditions Fewer Conditions

Nowcast | as of 1:06 am EST on February 28, 2015

Through this morning...isolated showers over the near-shore Atlantic waters of Miami-Dade County will conitnue to move from the east southeast around 5 to 10 mph and possibily into the coastal areas of Miami-Dade County. Any showers that do move onshore will be capable of producing wind gusts up to 20 mph and rainfall amounts up to tenth of an inch. Mariners can also expect higher seas in and near the showers. The is a slight risk of waterspouts for the Atlantic waters this morning.

×

10-Day Weather Forecast

Almanac

Astronomy

Feb. 28, 2015 Rise Set
Actual Time
Civil Twilight
Nautical Twilight
Astronomical Twilight
Moon
Length of Visible Light
Length of Day
Tomorrow will be .
, % of the Moon is Illuminated

Today's Extremes

State Highs State Lows

Community

WunderPhotos

Upload Photos

1,800,984 photos uploaded!

WunderBlogs® & News

Nearby

Air Quality

  Air Quality AQ Index Pollutant
Not available.

Snow Depth

Station Depth Elevation

Earthquake Activity

City Distance Mag. Time & Date
Minimum magnitude displayed is 2.5.

Coastal Water Temperatures

Place Temperature

Nearby Weather Stations